Tracking 18816 objects as of 18-October-2017
HD Live streaming from Space Station
objects crossing your sky now

ATLAS 55E R/B

Track ATLAS 55E R/B now!
10-day predictions


NORAD ID: 16137
Int'l Code: 1985-093B
Perigee: 964.6 km
Apogee: 20,331.4 km
Inclination: 63.8 °
Period: 368.3 minutes
Semi major axis: 17018 km
RCS: 2.2883 m2 (large)
Launch date: October 9, 1985
Source: United States (US)
Launch site: AIR FORCE WESTERN TEST RANGE (AFWTR)

Note: This is a ROCKET BODY
aabbcc
Your satellite tracking list
Your tracking list is empty





NASA's NSSDC Master Catalog

Two Line Element Set (TLE):
1 16137U 85093B   17290.45381424 +.00000001 +00000-0 +00000-0 0  9994
2 16137 063.7590 311.9168 5689753 357.3128 039.8805 03.91023446457327
Source of the keplerian elements: AFSPC